Weather in Ozerskoye

Russia / Sakhalin District     46°36′37″N   143°07′33″E
temp.,
°C
wind,
m/s
gust,
m/s
humid.,
%
clouds,
%
prec.,
mm/h
press.,
hPa
HPBL,
m
14 may, fri
fri1423:00+4sse45890 0.0 101436
02:00+4s33915 0.0 101430
05:00+3s33925 0.0 101319
08:00+5sse338941 0.0 101341
11:00+5ssw469190 0.0 1013145
14:00+5s5790100 0.1 1012158
17:00+5s578868 0.1 1012120
20:00+5s579244 0.0 101387
15 may, sat
sat1523:00+3sse459563 0.0 101562
02:00+3sse449768 0.0 101670
05:00+3se339764 0.1 101649
08:00+3sse4595100 0.1 1017127
11:00+4s7989100 0.1 1016221
14:00+4s61092100 0.0 1016214
17:00+6ese3490100 0.8 101261
20:00+7sse91774100 0.0 1010225
16 may, sun
sun1623:00+6s81685100 0.0 1008220
02:00+5s81586100 0.0 1006248
05:00+6sw101798100 2.4 1006298
08:00+5sw71299100 3.4 1006151
11:00+5sw81599100 3.6 1006191
14:00+6sw9159686 0.1 1006223
17:00+6sw91592100 0.1 1005216
20:00+6sw61292100 0.0 1006156
17 may, mon
mon1723:00+5ssw5894100 0.0 1007114
02:00+5s5698100 0.0 100677
05:00+4s5699100 0.0 100660
08:00+4s569791 0.0 100664
11:00+6ssw689388 0.0 1005134
14:00+6s6990100 0.1 1005148
17:00+6s5785100 0.1 1003113
20:00+6s4487100 0.0 100344
18 may, tue
tue1823:00+5s3386100 0.0 100326
02:00+4s3394100 0.0 100328
05:00+3ssw2295100 0.0 100231
08:00+4ssw3394100 0.0 100361
11:00+5ssw3490100 0.1 100488
14:00+6wnw0184100 0.0 100589
17:00+9n127389 0.0 1006108
20:00+8ne3377100 0.0 100724